sat.trackr.live / text

‹ back to catalog

PRC TEST SPACECRAFT 4

NORAD 67689 · 2026-024A

PAYLOAD ACTIVE UNKNOWN

§ Identity

Operator
Country
PRC
Launch date
2026-02-07
Launch site
JSC
Launch vehicle
Mass (kg)
RCS (m²)

External: N2YO · Heavens-Above · Gunter

§ Orbital elements

Epoch: 2026-05-24T22:11:43.476000Z

Period
96.53 min
Inclination
49.9872°
Eccentricity
0.0005623
Mean motion
14.91698777 rev/d
Perigee alt
588.7 km
Apogee alt
596.6 km
Semi-major
6,970.8 km
B*
1.4794e-5
RAAN
24.8659°
Arg perigee
305.9992°
Mean anomaly
54.0428°
Rev number
1,596

§ Raw data

PRC TEST SPACECRAFT 41 67689U 26024A   26144.92480875 -.00000094  00000+0  14794-4 0  99922 67689  49.9872  24.8659 0005623 305.9992  54.0428 14.91698777 15967

JSON: /api/v1/satellites/67689 · /tle

For live sub-satellite position, see the globe view (requires WebGL).

§ Visibility from observer

Set your observer location to see the next 7 days of passes ≥ 10°. The values pass through the URL so the page stays shareable.

No JS? Fill the form by hand. The geolocation button needs JavaScript.